1513263600.41,8883,6.5,71634.0,-10.07,-16.17,-15.81,0,*51
1513263601.64,8884,6.5,71622.3,-10.07,-16.03,-15.67,0,*5B
1513263602.88,8885,6.5,71632.3,-10.05,-15.89,-15.49,0,*55
1513263604.14,8886,6.5,71608.5,-10.07,-15.63,-15.35,0,*5B
1513263605.38,8887,6.5,71654.3,-10.07,-15.67,-15.49,0,*55
1513263606.62,8888,6.5,71652.5,-10.09,-15.89,-15.63,0,*5C
1513263607.83,8889,6.5,71652.3,-10.05,-15.67,-15.49,0,*59
1513263609.07,8890,6.5,71684.3,-10.05,-15.67,-15.43,0,*5B
1513263610.33,8891,6.5,71662.5,-10.07,-15.81,-15.53,0,*51
1513263611.6,8892,6.5,71620.8,-10.07,-15.75,-15.43,0,*58
1513263612.85,8893,6.5,71664.3,-10.07,-15.67,-15.35,0,*5B
1513263614.1,8894,6.5,71640.5,-10.07,-15.63,-15.29,0,*55
1513263615.36,8895,6.5,71616.0,-10.07,-15.53,-15.35,0,*5A
1513263616.59,8896,6.5,71634.3,-10.05,-15.49,-15.21,0,*55
1513263617.8,8897,6.5,71690.8,-10.05,-15.49,-15.29,0,*5C
1513263619.04,8898,6.5,71662.5,-10.05,-15.43,-15.15,0,*56
1513263620.25,8899,6.5,71660.5,-10.09,-15.29,-15.15,0,*57
1513263621.48,8900,6.5,71622.5,-10.05,-15.07,-14.93,0,*59
1513263622.73,8901,6.5,71690.5,-10.03,-15.11,-15.01,0,*53
1513263623.99,8902,6.5,71702.5,-10.05,-15.01,-14.83,0,*5C
1513263625.27,8903,6.5,71718.0,-10.03,-14.97,-14.83,0,*55
1513263626.49,8904,6.5,71746.8,-10.05,-15.01,-14.89,0,*50
1513263627.75,8905,6.5,71698.5,-10.03,-14.89,-14.83,0,*5C
1513263629.04,8906,6.5,71704.0,-10.03,-14.83,-14.75,0,*5C
1513263630.29,8907,6.5,71736.5,-10.03,-14.97,-14.89,0,*5B
1513263631.55,8908,6.5,71696.5,-10.03,-14.75,-14.69,0,*56
1513263632.81,8909,6.5,71728.5,-10.03,-14.89,-14.83,0,*50
1513263634.09,8910,6.5,71730.5,-9.99,-14.83,-14.79,0,*6C
1513263635.36,8911,6.5,71706.0,-10.01,-14.83,-14.79,0,*54
1513263636.61,8912,6.5,71712.8,-10.01,-14.79,-14.55,0,*5C
1513263637.81,8913,6.5,71710.5,-10.01,-14.69,-14.69,0,*53
1513263639.02,8914,6.5,71716.0,-10.01,-14.69,-14.65,0,*58
1513263640.23,8915,6.5,71696.5,-10.01,-14.69,-14.65,0,*59
1513263641.43,8916,6.5,71698.5,-10.01,-14.69,-14.65,0,*5A
1513263642.71,8917,6.5,71702.8,-9.99,-14.79,-14.79,0,*6E
1513263643.99,8918,6.5,71728.5,-9.99,-14.79,-14.79,0,*61
1513263645.26,8919,6.5,71744.3,-9.99,-14.79,-14.83,0,*65
1513263646.52,8920,6.5,71722.3,-10.01,-14.79,-14.79,0,*53
1513263647.73,8921,6.5,71716.5,-10.01,-14.69,-14.65,0,*5E
1513263648.98,8922,6.5,71694.8,-9.99,-14.69,-14.79,0,*69
1513263650.18,8923,6.56,71704.3,-10.01,-14.65,-14.69,0,*5C
1513263651.44,8924,6.5,71712.3,-10.01,-14.55,-14.79,0,*59
1513263652.65,8925,6.5,71658.8,-10.01,-14.65,-14.69,0,*5A
1513263653.91,8926,6.5,71668.5,-10.01,-14.55,-14.79,0,*5B
1513263655.16,8927,6.5,71704.5,-10.01,-14.47,-14.65,0,*54
1513263656.42,8928,6.5,71696.3,-9.99,-14.51,-14.69,0,*69
1513263657.64,8929,6.5,71714.8,-9.97,-14.65,-14.83,0,*65
1513263658.91,8930,6.5,71690.8,-10.01,-14.55,-14.83,0,*59
1513263660.19,8931,6.5,71740.0,-9.99,-14.51,-14.79,0,*60
1513263661.45,8932,6.5,71736.5,-9.99,-14.51,-14.69,0,*62
1513263662.7,8933,6.5,71728.8,-9.99,-14.51,-14.69,0,*63
1513263663.92,8934,6.5,71668.8,-10.01,-14.33,-14.65,0,*55
1513263665.17,8935,6.5,71690.8,-9.99,-14.33,-14.55,0,*6E
1513263666.42,8936,6.5,71626.3,-9.99,-14.33,-14.51,0,*69
1513263667.63,8937,6.5,71608.5,-9.97,-14.19,-14.37,0,*6E
1513263668.86,8938,6.5,71660.3,-9.97,-14.29,-14.43,0,*61
1513263670.09,8939,6.5,71694.3,-9.97,-14.33,-14.47,0,*6F
1513263671.29,8940,6.5,71710.0,-9.97,-14.33,-14.61,0,*65
1513263672.53,8941,6.56,71704.3,-9.97,-14.43,-14.61,0,*63
1513263673.76,8942,6.56,71692.5,-9.97,-14.43,-14.65,0,*64
1513263675.04,8943,6.56,71700.3,-9.95,-14.47,-14.75,0,*62
1513263676.25,8944,6.5,71692.5,-9.97,-14.33,-14.65,0,*65
1513263677.46,8945,6.56,71676.3,-9.97,-14.33,-14.65,0,*64
1513263678.71,8946,6.5,71676.8,-9.97,-14.43,-14.75,0,*61
1513263679.98,8947,6.56,71664.3,-9.97,-14.47,-14.79,0,*68
1513263681.23,8948,6.5,71640.3,-9.97,-14.43,-14.79,0,*63
1513263682.49,8949,6.56,71670.0,-9.97,-14.43,-14.93,0,*66
1513263683.73,8950,6.5,71692.3,-9.97,-14.43,-14.89,0,*65
1513263684.93,8951,6.5,71720.5,-9.97,-14.29,-14.89,0,*68
1513263686.17,8952,6.5,71728.5,-9.97,-14.19,-14.79,0,*67
1513263687.41,8953,6.56,71706.0,-9.97,-14.05,-14.61,0,*62
1513263688.67,8954,6.5,71704.0,-9.95,-14.19,-14.79,0,*63
1513263689.92,8955,6.5,71560.5,-9.95,-14.29,-14.79,0,*61
1513263691.17,8956,6.5,71428.8,-9.95,-14.33,-15.01,0,*67
1513263692.39,8957,6.5,71484.5,-9.95,-14.61,-15.15,0,*64
1513263693.62,8958,6.5,71604.3,-9.97,-14.43,-15.07,0,*6A
1513263694.87,8959,6.56,71608.8,-9.95,-14.33,-15.01,0,*68
1513263696.13,8960,6.56,71616.8,-9.97,-14.43,-14.93,0,*6D
1513263697.4,8961,6.5,71616.8,-9.95,-14.43,-15.01,0,*64
1513263698.69,8962,6.56,71616.0,-9.95,-14.47,-15.01,0,*63
1513263699.92,8963,6.5,71618.8,-9.97,-14.43,-15.07,0,*62
1513263701.18,8964,6.5,71616.0,-9.97,-14.47,-15.01,0,*67
1513263702.41,8965,6.5,71642.0,-9.97,-14.33,-14.93,0,*6F
1513263703.66,8966,6.56,71650.0,-9.95,-14.33,-15.01,0,*64
1513263704.89,8967,6.56,71644.0,-9.97,-14.33,-14.93,0,*6D
1513263706.13,8968,6.56,71584.3,-9.97,-14.47,-15.07,0,*6D
1513263707.39,8969,6.5,71626.3,-9.97,-14.47,-15.01,0,*6A
1513263708.67,8970,6.5,71630.8,-9.95,-14.43,-15.01,0,*64
1513263709.95,8971,6.56,71594.3,-9.95,-14.47,-15.01,0,*61
1513263711.16,8972,6.56,71582.0,-9.97,-14.61,-15.07,0,*62
1513263712.43,8973,6.5,71592.5,-9.95,-14.43,-14.79,0,*69
1513263713.66,8974,6.5,71598.3,-9.97,-14.29,-14.79,0,*60
1513263714.93,8975,6.56,71584.5,-9.97,-14.47,-15.01,0,*67
1513263716.19,8976,6.5,71604.3,-9.97,-14.51,-14.93,0,*69
1513263717.44,8977,6.5,71554.5,-9.95,-14.43,-14.89,0,*62
1513263718.72,8978,6.5,71524.0,-9.95,-14.51,-14.93,0,*65
1513263719.99,8979,6.5,71542.0,-9.95,-14.47,-14.89,0,*68
1513263721.27,8980,6.5,71548.3,-9.95,-14.47,-14.93,0,*65
1513263722.52,8981,6.5,71474.5,-9.95,-14.43,-14.89,0,*6B
1513263723.78,8982,6.5,71472.5,-9.95,-14.33,-14.79,0,*60
1513263724.98,8983,6.5,71528.5,-9.97,-14.29,-14.65,0,*65
1513263726.19,8984,6.56,71528.8,-9.97,-14.33,-14.65,0,*69
1513263727.44,8985,6.5,71518.3,-9.95,-14.33,-14.79,0,*67
1513263728.72,8986,6.5,71528.5,-9.95,-14.43,-14.79,0,*63
1513263729.95,8987,6.5,71524.3,-9.95,-14.29,-14.65,0,*63
1513263731.18,8988,6.5,71494.0,-9.95,-14.29,-14.65,0,*6C
1513263732.44,8989,6.5,71570.8,-9.91,-14.23,-14.55,0,*60
1513263733.67,8990,6.56,71552.8,-9.91,-14.23,-14.61,0,*6F
1513263734.93,8991,6.56,71554.0,-9.91,-14.23,-14.55,0,*69
1513263736.17,8992,6.56,71554.3,-9.95,-14.15,-14.61,0,*6C
1513263737.4,8993,6.5,71592.3,-9.95,-14.19,-14.65,0,*65
1513263738.64,8994,6.5,71584.8,-9.91,-14.15,-14.61,0,*6E
1513263739.9,8995,6.5,71546.5,-9.91,-14.15,-14.75,0,*6A
1513263741.13,8996,6.56,71614.0,-9.91,-14.11,-14.61,0,*68
1513263742.37,8997,6.5,71566.3,-9.91,-14.15,-14.61,0,*6D
1513263743.61,8998,6.5,71626.3,-9.91,-14.15,-14.61,0,*62
1513263744.81,8999,6.5,71602.8,-9.89,-14.15,-14.69,0,*62
1513263746.04,9000,6.5,71618.3,-9.87,-14.19,-14.69,0,*68
1513263747.24,9001,6.5,71622.8,-9.89,-14.19,-14.69,0,*67
1513263748.47,9002,6.5,71650.8,-9.89,-14.29,-14.75,0,*6A
1513263749.7,9003,6.5,71654.5,-9.89,-14.23,-14.75,0,*61
1513263750.93,9004,6.5,71562.3,-9.89,-14.15,-14.75,0,*63
1513263752.14,9005,6.5,71660.0,-9.89,-14.15,-14.69,0,*6F
1513263753.35,9006,6.5,71652.3,-9.89,-14.15,-14.61,0,*64
1513263754.59,9007,6.56,71614.5,-9.89,-14.15,-14.75,0,*60
1513263755.81,9008,6.5,71632.5,-9.87,-14.11,-14.69,0,*68
1513263757.04,9009,6.56,71688.3,-9.87,-14.19,-14.69,0,*61
1513263758.29,9010,6.56,71654.5,-9.87,-14.37,-14.83,0,*61
1513263759.53,9011,6.5,71668.5,-9.85,-14.37,-14.83,0,*62
1513263760.81,9012,6.5,71640.8,-9.87,-14.51,-14.97,0,*66
1513263762.06,9013,6.5,71656.0,-9.87,-14.55,-15.07,0,*6B
1513263763.26,9014,6.56,71664.8,-9.89,-14.61,-15.11,0,*62
1513263764.46,9015,6.5,71612.0,-9.89,-14.69,-15.11,0,*6B
1513263765.69,9016,6.5,71668.3,-9.89,-14.61,-14.97,0,*6F
1513263766.94,9017,6.56,71658.8,-9.89,-14.55,-15.01,0,*67
1513263768.18,9018,6.5,71642.5,-9.87,-14.69,-14.93,0,*63
1513263769.4,9019,6.56,71628.8,-9.87,-14.69,-15.07,0,*6E
1513263770.63,9020,6.56,71662.5,-9.89,-14.83,-15.15,0,*6D
1513263771.86,9021,6.5,71652.3,-9.89,-14.97,-15.25,0,*6A
1513263773.08,9022,6.56,71588.3,-9.89,-14.75,-15.11,0,*62
1513263774.33,9023,6.5,71588.5,-9.87,-14.93,-15.11,0,*65
1513263775.58,9024,6.5,71590.3,-9.87,-14.93,-15.25,0,*65
1513263776.83,9025,6.56,71622.5,-9.89,-15.01,-15.43,0,*60
1513263778.05,9026,6.5,71638.3,-9.89,-15.11,-15.35,0,*63
1513263779.25,9027,6.5,71668.3,-9.89,-15.11,-15.29,0,*6F
1513263780.46,9028,6.56,71672.8,-9.89,-15.11,-15.29,0,*60
1513263781.71,9029,6.5,71636.0,-9.91,-15.01,-15.29,0,*69
1513263782.96,9030,6.56,71652.5,-9.89,-15.01,-15.43,0,*64
1513263784.21,9031,6.56,71678.0,-9.91,-15.01,-15.25,0,*6C
1513263785.41,9032,6.56,71708.3,-9.89,-15.11,-15.25,0,*67
1513263786.62,9033,6.5,71654.5,-9.89,-15.11,-15.29,0,*6A
1513263787.87,9034,6.5,71694.8,-9.95,-15.07,-15.35,0,*6A
1513263789.1,9035,6.5,71666.8,-9.91,-15.15,-15.29,0,*61
1513263790.34,9036,6.56,71704.3,-9.91,-15.15,-15.29,0,*62
1513263791.56,9037,6.5,71704.3,-9.89,-15.01,-15.25,0,*63
1513263792.82,9038,6.5,71726.5,-9.91,-15.01,-15.25,0,*65
1513263794.07,9039,6.5,71700.3,-9.91,-15.01,-15.25,0,*64
1513263795.3,9040,6.5,71660.5,-9.91,-14.89,-15.11,0,*6C
1513263796.56,9041,6.56,71682.3,-9.91,-14.83,-14.89,0,*67
1513263797.8,9042,6.56,71674.5,-9.91,-14.69,-14.83,0,*6A
1513263799.06,9043,6.5,71704.5,-9.91,-14.55,-14.69,0,*60
1513263800.31,9044,6.5,71688.3,-9.91,-14.37,-14.55,0,*6C
1513263801.54,9045,6.5,71692.8,-9.89,-14.55,-14.89,0,*61
1513263802.77,9046,6.5,71700.8,-9.91,-14.69,-14.89,0,*64
1513263803.98,9047,6.56,71712.0,-9.89,-14.69,-14.75,0,*6F
1513263805.21,9048,6.5,71722.0,-9.91,-14.69,-14.89,0,*6A
1513263806.48,9049,6.56,71686.3,-9.91,-14.75,-14.97,0,*69
1513263807.76,9050,6.5,71682.0,-9.91,-14.75,-15.01,0,*6F
1513263809.04,9051,6.5,71666.5,-9.91,-14.83,-14.97,0,*69
1513263810.32,9052,6.5,71666.5,-9.91,-14.75,-14.97,0,*63
1513263811.59,9053,6.5,71642.5,-9.91,-14.97,-15.01,0,*60
1513263812.87,9054,6.5,71598.3,-9.91,-14.83,-15.01,0,*62
1513263814.12,9055,6.5,71628.0,-9.91,-14.97,-15.11,0,*67
1513263815.4,9056,6.5,71622.3,-9.91,-14.83,-15.01,0,*60
1513263816.67,9057,6.56,71634.3,-9.91,-14.75,-14.83,0,*63
1513263817.95,9058,6.5,71652.5,-9.91,-14.75,-14.97,0,*69
1513263819.17,9059,6.5,71638.3,-9.91,-14.69,-14.89,0,*6A
1513263820.45,9060,6.5,71650.0,-9.95,-14.79,-14.93,0,*6E
1513263821.7,9061,6.56,71644.3,-9.95,-14.65,-14.79,0,*66
1513263822.95,9062,6.56,71612.5,-9.95,-14.51,-14.89,0,*6D
1513263824.2,9063,6.56,71664.0,-9.95,-14.65,-14.93,0,*60
1513263825.42,9064,6.5,71632.3,-9.91,-14.69,-14.89,0,*64
1513263826.7,9065,6.5,71638.0,-9.91,-14.75,-14.97,0,*67
1513263827.95,9066,6.5,71650.5,-9.91,-14.75,-14.89,0,*6B
1513263829.18,9067,6.5,71696.3,-9.91,-14.61,-14.89,0,*6F
1513263830.44,9068,6.56,71688.0,-9.89,-14.55,-14.83,0,*64
1513263831.66,9069,6.5,71692.3,-9.95,-14.65,-14.89,0,*61
1513263832.89,9070,6.5,71684.3,-9.95,-14.65,-14.89,0,*69
1513263834.16,9071,6.5,71664.3,-9.95,-14.79,-15.01,0,*64
1513263835.41,9072,6.5,71632.5,-9.95,-14.93,-15.15,0,*66
1513263836.61,9073,6.5,71624.8,-9.97,-14.89,-15.07,0,*6D
1513263837.88,9074,6.5,71648.5,-9.95,-14.79,-15.01,0,*61
1513263839.16,9075,6.56,71634.5,-9.95,-14.79,-15.01,0,*60
1513263840.43,9076,6.5,71656.5,-9.95,-14.79,-14.93,0,*69
1513263841.7,9077,6.5,71664.8,-9.95,-14.75,-14.93,0,*64
1513263842.98,9078,6.5,71652.3,-9.95,-14.79,-14.93,0,*67
1513263844.23,9079,6.56,71618.0,-9.97,-14.75,-14.93,0,*68
1513263845.45,9080,6.5,71650.5,-9.95,-14.61,-14.89,0,*62
1513263846.7,9081,6.56,71644.5,-9.95,-14.61,-14.79,0,*6C
1513263847.96,9082,6.5,71666.0,-9.95,-14.51,-14.89,0,*63
1513263849.22,9083,6.5,71628.5,-9.97,-14.47,-14.75,0,*64
1513263850.5,9084,6.5,71660.5,-9.95,-14.43,-14.79,0,*69
1513263851.76,9085,6.5,71684.0,-9.95,-14.43,-14.89,0,*67
1513263853.01,9086,6.5,71666.8,-9.97,-14.43,-14.79,0,*69
1513263854.25,9087,6.56,71662.5,-9.97,-14.43,-14.65,0,*65
1513263855.53,9088,6.5,71670.0,-9.95,-14.47,-14.75,0,*6D
1513263856.82,9089,6.5,71688.0,-9.95,-14.47,-14.79,0,*60
1513263858.1,9090,6.5,71694.5,-9.95,-14.51,-14.79,0,*6F
1513263859.36,9091,6.5,71698.5,-9.95,-14.51,-14.89,0,*61
1513263860.64,9092,6.5,71668.5,-9.95,-14.51,-14.79,0,*6D
1513263861.9,9093,6.56,71642.5,-9.95,-14.51,-14.89,0,*63
1513263863.14,9094,6.5,71644.8,-9.97,-14.51,-14.89,0,*66
1513263864.34,9095,6.5,71634.0,-9.97,-14.65,-14.89,0,*60
1513263865.55,9096,6.56,71688.8,-9.97,-14.65,-14.89,0,*63
1513263866.78,9097,6.5,71660.0,-9.97,-14.75,-14.89,0,*63
1513263867.98,9098,6.5,71628.8,-9.97,-14.65,-14.89,0,*6D
1513263869.22,9099,6.5,71676.5,-9.95,-14.65,-14.75,0,*6D
1513263870.45,9100,6.5,71692.8,-9.97,-14.61,-14.79,0,*66
1513263871.68,9101,6.5,71648.8,-9.97,-14.61,-14.75,0,*6B
1513263872.93,9102,6.5,71570.8,-9.95,-14.61,-14.75,0,*6A
1513263874.16,9103,6.5,71612.0,-9.97,-14.75,-14.89,0,*6F
1513263875.38,9104,6.5,71590.5,-9.97,-14.61,-14.75,0,*6E
1513263876.64,9105,6.5,71630.5,-9.97,-14.43,-14.51,0,*69
1513263877.87,9106,6.5,71672.0,-9.97,-14.43,-14.61,0,*69
1513263879.1,9107,6.5,71714.3,-9.97,-14.33,-14.51,0,*6C
1513263880.35,9108,6.5,71646.3,-9.95,-14.43,-14.61,0,*65
1513263881.61,9109,6.5,71692.8,-9.95,-14.51,-14.65,0,*63
1513263882.89,9110,6.5,71698.0,-9.95,-14.51,-14.75,0,*6A
1513263884.15,9111,6.5,71692.3,-9.97,-14.51,-14.79,0,*65
1513263885.41,9112,6.5,71714.5,-9.97,-14.51,-14.75,0,*6A
1513263886.67,9113,6.5,71714.8,-9.97,-14.51,-14.79,0,*67
1513263887.88,9114,6.5,71696.0,-9.97,-14.29,-14.61,0,*66
1513263889.12,9115,6.5,71712.5,-9.97,-14.47,-14.65,0,*6B
1513263890.35,9116,6.5,71704.3,-9.97,-14.43,-14.61,0,*68
1513263891.56,9117,6.5,71722.8,-9.97,-14.33,-14.65,0,*6A
1513263892.79,9118,6.5,71716.5,-9.97,-14.33,-14.51,0,*62
1513263894.02,9119,6.5,71720.3,-9.99,-14.37,-14.65,0,*6E
1513263895.25,9120,6.5,71712.8,-9.99,-14.33,-14.65,0,*60
1513263896.48,9121,6.5,71722.5,-9.99,-14.33,-14.65,0,*61
1513263897.72,9122,6.5,71708.0,-9.97,-14.37,-14.55,0,*6B
1513263898.94,9123,6.5,71688.0,-9.99,-14.33,-14.69,0,*6F
1513263900.2,9124,6.5,71688.0,-9.99,-14.33,-14.47,0,*64
1513263901.45,9125,6.5,71674.0,-9.99,-14.33,-14.51,0,*62
1513263902.69,9126,6.5,71668.8,-9.97,-14.19,-14.51,0,*67
1513263903.92,9127,6.56,71668.0,-9.97,-14.19,-14.51,0,*66
1513263905.15,9128,6.5,71668.5,-9.97,-14.29,-14.51,0,*6A
1513263906.36,9129,6.5,71652.8,-9.97,-14.33,-14.61,0,*63
1513263907.57,9130,6.5,71632.0,-9.97,-14.19,-14.61,0,*63
1513263908.79,9131,6.5,71672.8,-9.99,-14.37,-14.69,0,*68
1513263910.02,9132,6.5,71672.8,-9.99,-14.33,-14.69,0,*6F
1513263911.25,9133,6.5,71674.5,-9.99,-14.33,-14.65,0,*62
1513263912.49,9134,6.5,71676.5,-10.01,-14.23,-14.51,0,*5A
1513263913.75,9135,6.5,71678.0,-9.99,-14.23,-14.51,0,*62
1513263915.01,9136,6.5,71676.8,-9.99,-14.23,-14.51,0,*61
1513263916.25,9137,6.5,71678.5,-9.99,-14.23,-14.65,0,*67
1513263917.49,9138,6.5,71592.0,-9.97,-14.19,-14.51,0,*68
1513263918.72,9139,6.5,71652.8,-9.97,-14.29,-14.51,0,*6A
1513263919.97,9140,6.5,71592.5,-9.99,-14.33,-14.51,0,*61
1513263921.23,9141,6.5,71686.0,-9.99,-14.23,-14.55,0,*65
1513263922.49,9142,6.5,71768.3,-9.99,-14.23,-14.51,0,*62
1513263923.75,9143,6.5,71770.3,-9.99,-14.19,-14.55,0,*6E
1513263925.01,9144,6.5,71774.0,-9.99,-14.05,-14.37,0,*60
1513263926.27,9145,6.5,71774.3,-9.99,-14.11,-14.51,0,*64
1513263927.52,9146,6.5,71774.0,-9.99,-14.23,-14.55,0,*62
1513263928.75,9147,6.5,71786.3,-9.99,-14.19,-14.69,0,*65
1513263930.01,9148,6.5,71782.5,-9.99,-14.23,-14.55,0,*6C
1513263931.26,9149,6.5,71758.8,-10.01,-14.23,-14.55,0,*54
1513263932.5,9150,6.5,71766.0,-9.97,-14.19,-14.47,0,*61
1513263933.74,9151,6.5,71760.8,-9.97,-14.15,-14.51,0,*6B
1513263934.99,9152,6.5,71758.5,-9.99,-14.37,-14.79,0,*6C
1513263936.25,9153,6.5,71744.5,-9.99,-14.37,-14.83,0,*68
1513263937.51,9154,6.5,71712.5,-9.99,-14.37,-14.79,0,*6A
1513263938.76,9155,6.5,71710.0,-9.99,-14.37,-14.79,0,*6B
1513263940.0,9156,6.5,71726.8,-9.97,-14.43,-14.89,0,*6A
1513263941.28,9157,6.5,71744.3,-9.99,-14.51,-14.83,0,*6C
1513263942.57,9158,6.5,71746.3,-9.99,-14.51,-14.83,0,*63
1513263943.83,9159,6.5,71732.8,-9.97,-14.47,-14.75,0,*62
1513263945.06,9160,6.5,71742.3,-9.99,-14.33,-14.65,0,*64
1513263946.28,9161,6.5,71734.0,-10.01,-14.23,-14.69,0,*51
1513263947.53,9162,6.5,71748.0,-9.99,-14.37,-14.79,0,*6F
1513263948.77,9163,6.5,71756.0,-10.01,-14.33,-14.79,0,*53
1513263949.99,9164,6.5,71760.8,-9.99,-14.33,-14.69,0,*6C
1513263951.23,9165,6.5,71748.3,-10.01,-14.33,-14.79,0,*55
1513263952.49,9166,6.5,71744.5,-9.99,-14.37,-14.79,0,*6B
1513263953.78,9167,6.5,71744.0,-9.99,-14.47,-14.79,0,*6D
1513263955.06,9168,6.5,71756.5,-9.99,-14.51,-14.83,0,*60
1513263956.35,9169,6.5,71736.3,-9.99,-14.47,-14.79,0,*63
1513263957.62,9170,6.5,71730.0,-10.01,-14.47,-14.79,0,*52
1513263958.89,9171,6.5,71732.0,-10.01,-14.51,-14.83,0,*51
1513263960.18,9172,6.5,71726.3,-9.99,-14.47,-14.79,0,*69
1513263961.44,9173,6.5,71704.8,-10.01,-14.55,-14.83,0,*57
1513263962.71,9174,6.5,71698.3,-10.01,-14.51,-14.79,0,*51
1513263963.98,9175,6.56,71700.8,-10.01,-14.51,-14.79,0,*50
1513263965.26,9176,6.5,71686.8,-9.99,-14.51,-14.79,0,*6A
1513263966.53,9177,6.5,71668.5,-10.01,-14.55,-14.79,0,*56
1513263967.81,9178,6.5,71690.5,-9.99,-14.55,-14.83,0,*65
1513263969.08,9179,6.5,71682.3,-10.01,-14.51,-14.79,0,*5C
1513263970.34,9180,6.5,71662.3,-9.99,-14.51,-14.65,0,*6E
1513263971.61,9181,6.5,71686.0,-9.99,-14.47,-14.65,0,*68
1513263972.84,9182,6.5,71704.5,-10.01,-14.33,-14.51,0,*56
1513263974.06,9183,6.5,71700.3,-10.01,-14.23,-14.37,0,*56
1513263975.32,9184,6.5,71680.8,-9.99,-14.23,-14.47,0,*6F
1513263976.55,9185,6.5,71678.5,-9.99,-14.23,-14.37,0,*69
1513263977.79,9186,6.5,71634.3,-9.97,-14.29,-14.47,0,*69
1513263979.05,9187,6.5,71638.0,-9.99,-14.47,-14.65,0,*6E
1513263980.28,9188,6.5,71660.3,-9.97,-14.33,-14.51,0,*6B
1513263981.54,9189,6.5,71672.3,-9.99,-14.47,-14.69,0,*6C
1513263982.82,9190,6.5,71668.8,-9.99,-14.51,-14.79,0,*62
1513263984.09,9191,6.5,71666.3,-9.99,-14.47,-14.65,0,*69
1513263985.32,9192,6.5,71676.8,-9.97,-14.43,-14.61,0,*64
1513263986.58,9193,6.5,71672.8,-9.99,-14.51,-14.65,0,*6C
1513263987.83,9194,6.5,71696.3,-10.01,-14.51,-14.65,0,*52
1513263989.07,9195,6.5,71670.8,-9.97,-14.47,-14.61,0,*67
1513263990.31,9196,6.5,71672.8,-9.97,-14.47,-14.65,0,*60
1513263991.57,9197,6.5,71686.3,-9.99,-14.51,-14.65,0,*68
1513263992.85,9198,6.5,71670.3,-9.99,-14.51,-14.83,0,*6F
1513263994.14,9199,6.5,71704.5,-9.99,-14.47,-14.79,0,*6C
1513263995.43,9200,6.5,71702.8,-9.99,-14.51,-14.79,0,*68
1513263996.71,9201,6.5,71680.5,-9.99,-14.55,-14.79,0,*6D
1513263997.97,9202,6.5,71672.8,-10.01,-14.55,-14.79,0,*57
1513263999.24,9203,6.5,71696.0,-10.01,-14.55,-14.79,0,*56
1513264000.49,9204,6.5,71678.0,-9.99,-14.55,-14.69,0,*69
1513264001.73,9205,6.5,71646.0,-10.01,-14.47,-14.69,0,*52
1513264002.99,9206,6.5,71608.0,-9.99,-14.47,-14.69,0,*68
1513264004.28,9207,6.5,71644.5,-9.99,-14.47,-14.83,0,*6D
1513264005.55,9208,6.5,71638.0,-10.01,-14.51,-14.83,0,*5C
1513264006.84,9209,6.5,71600.5,-9.99,-14.47,-14.79,0,*66
1513264008.09,9210,6.5,71654.8,-9.99,-14.47,-14.69,0,*6F
1513264009.32,9211,6.5,71654.3,-9.99,-14.33,-14.69,0,*6D
1513264010.55,9212,6.5,71654.5,-10.01,-14.33,-14.79,0,*56
1513264011.79,9213,6.5,71632.8,-9.99,-14.33,-14.65,0,*63
1513264013.02,9214,6.5,71650.8,-9.99,-14.33,-14.65,0,*64
1513264014.25,9215,6.5,71644.5,-9.99,-14.33,-14.65,0,*65
1513264015.46,9216,6.5,71660.3,-10.01,-14.33,-14.65,0,*5F
1513264016.69,9217,6.5,71680.8,-9.97,-14.33,-14.79,0,*64
1513264017.98,9218,6.5,71726.3,-9.99,-14.51,-14.97,0,*61
1513264019.24,9219,6.5,71704.0,-9.99,-14.37,-14.83,0,*65
1513264020.53,9220,6.5,71686.0,-9.99,-14.47,-14.83,0,*68
1513264021.76,9221,6.5,71674.0,-9.97,-14.51,-14.89,0,*6A
1513264023.05,9222,6.5,71640.0,-9.99,-14.51,-14.93,0,*6C
1513264024.33,9223,6.5,71666.0,-9.99,-14.55,-14.83,0,*68
1513264025.62,9224,6.5,71654.3,-9.99,-14.47,-14.83,0,*6C
1513264026.88,9225,6.5,71650.5,-9.97,-14.47,-14.79,0,*66
1513264028.12,9226,6.5,71656.3,-9.97,-14.33,-14.79,0,*66
1513264029.37,9227,6.5,71650.3,-9.97,-14.51,-14.93,0,*67
1513264030.66,9228,6.5,71614.0,-9.99,-14.55,-14.83,0,*63
1513264031.92,9229,6.5,71618.3,-9.97,-14.47,-14.75,0,*66
1513264033.16,9230,6.5,71642.8,-9.97,-14.47,-14.61,0,*6B
1513264034.41,9231,6.5,71654.5,-9.95,-14.61,-14.79,0,*65
1513264035.61,9232,6.5,71654.5,-9.97,-14.65,-14.89,0,*6F
1513264036.86,9233,6.5,71650.5,-9.97,-14.75,-14.93,0,*64
1513264038.11,9234,6.5,71662.0,-9.97,-14.75,-15.01,0,*69
1513264039.34,9235,6.5,71608.5,-9.97,-14.75,-14.89,0,*69
1513264040.57,9236,6.5,71574.8,-9.97,-14.65,-14.79,0,*64
1513264041.78,9237,6.5,71588.5,-9.97,-14.61,-14.89,0,*6E
1513264043.0,9238,6.5,71568.8,-9.97,-14.65,-14.79,0,*6A
1513264044.25,9239,6.5,71584.5,-9.95,-14.61,-14.79,0,*6D
1513264045.48,9240,6.5,71586.5,-9.97,-14.65,-14.75,0,*69
1513264046.72,9241,6.5,71586.0,-9.99,-14.69,-14.79,0,*66
1513264047.98,9242,6.5,71582.5,-9.97,-14.51,-14.75,0,*6C
1513264049.22,9243,6.5,71586.8,-9.97,-14.47,-14.61,0,*6F
1513264050.51,9244,6.5,71582.3,-9.99,-14.47,-14.51,0,*65
1513264051.73,9245,6.5,71578.0,-9.97,-14.33,-14.43,0,*6A
1513264052.96,9246,6.5,71566.5,-9.97,-14.33,-14.43,0,*69
1513264054.24,9247,6.5,71630.0,-9.95,-14.43,-14.47,0,*69
1513264055.46,9248,6.5,71604.3,-9.95,-14.29,-14.33,0,*69
1513264056.66,9249,6.5,71592.0,-9.97,-14.29,-14.29,0,*61
1513264057.89,9250,6.5,71578.8,-9.95,-14.29,-14.33,0,*60
1513264059.11,9251,6.5,71536.5,-9.95,-14.33,-14.33,0,*6A
1513264060.37,9252,6.5,71554.5,-9.95,-14.15,-14.05,0,*68
1513264061.66,9253,6.5,71630.8,-9.95,-14.01,-14.01,0,*68
1513264062.87,9254,6.5,71610.8,-9.89,-14.15,-14.15,0,*62
1513264064.11,9255,6.5,71636.8,-9.91,-14.15,-14.23,0,*6F
1513264065.31,9256,6.5,71616.8,-9.89,-14.11,-14.11,0,*60
1513264066.52,9257,6.5,71628.8,-9.89,-14.15,-14.23,0,*64
1513264067.73,9258,6.5,71652.5,-9.89,-14.15,-14.23,0,*6B
1513264068.94,9259,6.5,71652.8,-9.89,-14.15,-14.23,0,*6A
1513264070.15,9260,6.5,71652.8,-9.89,-14.23,-14.23,0,*65
1513264071.35,9261,6.5,71652.0,-9.89,-14.29,-14.37,0,*6B
1513264072.58,9262,6.5,71628.8,-9.91,-14.23,-14.37,0,*6B
1513264073.81,9263,6.5,71646.3,-9.87,-14.33,-14.37,0,*6C
1513264075.06,9264,6.5,71640.8,-9.87,-14.43,-14.37,0,*6C
1513264076.34,9265,6.5,71612.8,-9.87,-14.55,-14.51,0,*6A
1513264077.6,9266,6.5,71614.8,-9.87,-14.43,-14.43,0,*6D
1513264078.83,9267,6.5,71626.8,-9.87,-14.37,-14.37,0,*6C
1513264080.11,9268,6.5,71654.5,-9.87,-14.51,-14.51,0,*63
1513264081.33,9269,6.5,71664.5,-9.87,-14.69,-14.65,0,*6E
1513264082.61,9270,6.5,71672.3,-9.87,-14.51,-14.51,0,*6A
1513264083.86,9271,6.5,71672.8,-9.89,-14.43,-14.43,0,*65
1513264085.12,9272,6.5,71682.0,-9.89,-14.43,-14.47,0,*62
1513264086.34,9273,6.5,71672.0,-9.89,-14.37,-14.43,0,*64
1513264087.56,9274,6.5,71674.8,-9.89,-14.37,-14.43,0,*63
1513264088.8,9275,6.5,71682.3,-9.89,-14.37,-14.47,0,*66
1513264090.03,9276,6.5,71638.5,-9.87,-14.19,-14.33,0,*64
1513264091.26,9277,6.5,71662.5,-9.87,-14.19,-14.33,0,*65
1513264092.46,9278,6.5,71702.5,-9.89,-14.23,-14.29,0,*66
1513264093.69,9279,6.5,71682.8,-9.87,-14.19,-14.37,0,*6F
1513264094.92,9280,6.5,71696.3,-9.87,-14.19,-14.23,0,*6C
1513264096.13,9281,6.5,71692.3,-9.89,-14.23,-14.37,0,*6F
1513264097.39,9282,6.5,71690.8,-9.87,-14.05,-14.23,0,*63
1513264098.64,9283,6.5,71708.0,-9.87,-14.05,-14.23,0,*62
1513264099.9,9284,6.5,71714.0,-9.87,-14.05,-14.23,0,*65
1513264101.13,9285,6.5,71704.5,-9.87,-14.11,-14.33,0,*60
1513264102.38,9286,6.5,71738.5,-9.87,-14.11,-14.43,0,*64
1513264103.6,9287,6.5,71726.8,-9.85,-14.11,-14.43,0,*67
1513264104.83,9288,6.5,71728.8,-9.87,-14.11,-14.33,0,*6D
1513264106.06,9289,6.5,71672.3,-9.87,-14.11,-14.33,0,*6C
1513264107.29,9290,6.5,71644.0,-9.85,-14.11,-14.51,0,*62
1513264108.55,9291,6.5,71728.3,-9.87,-14.05,-14.37,0,*64
1513264109.78,9292,6.5,71696.5,-9.85,-14.05,-14.33,0,*61
1513264111.03,9293,6.5,71718.0,-9.87,-14.05,-14.37,0,*66
1513264112.23,9294,6.5,71706.8,-9.85,-13.93,-14.37,0,*6B
1513264113.46,9295,6.5,71704.5,-9.87,-14.11,-14.37,0,*65
1513264114.72,9296,6.5,71720.0,-9.87,-14.19,-14.55,0,*6A
1513264115.97,9297,6.5,71702.8,-9.87,-14.19,-14.55,0,*6B
1513264117.18,9298,6.5,71652.3,-9.85,-14.23,-14.69,0,*60
1513264118.41,9299,6.5,71644.0,-9.87,-14.23,-14.65,0,*6F
1513264119.62,9300,6.5,71686.3,-9.85,-14.19,-14.65,0,*65
1513264120.88,9301,6.5,71688.0,-9.87,-14.19,-14.55,0,*65